When you browse on this site, cookies collect data to enhance your experience and personalize the content and advertising you see.
Visit our Privacy Policy to learn more. By continuing to use the site, you agree to this use of cookies and data.
  • In Hungary
  • List of Countries
  • For 7 days
  • Water Temperature
  • Satellite Maps
  • Weather Map
  • News
  • Weather Widgets
  • user-avatar
    Login

    Hourly Weather Cyklady

    Today, 18 January, Friday

    Time Temperature Precipitation Wind Pressure Humidity
    00:00 +1°C° 0 mm 1 mps 684 mmHg 94%
    01:00 +1°C° 0 mm 1 mps 684 mmHg 94%
    02:00 +1°C° 0 mm 1 mps 683 mmHg 94%
    03:00 +1°C° 0 mm 1 mps 683 mmHg 94%
    04:00 +1°C° 0 mm 1 mps 683 mmHg 94%
    05:00 +1°C° 0 mm 1 mps 683 mmHg 94%
    06:00 +1°C° 0 mm 1 mps 683 mmHg 93%
    07:00 +1°C° 0 mm 1 mps 683 mmHg 93%
    08:00 +3°C° 0 mm 1 mps 684 mmHg 86%
    09:00 +5°C° 0 mm 1 mps 684 mmHg 78%
    10:00 +7°C° 0 mm 1 mps 685 mmHg 71%
    11:00 +8°C° 0 mm 1 mps 685 mmHg 68%
    12:00 +8°C° 0 mm 1 mps 685 mmHg 66%
    13:00 +8°C° 0 mm 2 mps 685 mmHg 65%
    14:00 +8°C° 0 mm 1 mps 684 mmHg 69%
    15:00 +7°C° 0 mm 1 mps 684 mmHg 74%
    16:00 +7°C° 0 mm 1 mps 684 mmHg 78%
    17:00 +5°C° 0 mm 1 mps 683 mmHg 82%
    18:00 +4°C° 0 mm 1 mps 683 mmHg 85%
    19:00 +3°C° 0 mm 1 mps 683 mmHg 89%
    20:00 +3°C° 0 mm 1 mps 683 mmHg 88%
    21:00 +2°C° 0 mm 1 mps 683 mmHg 88%
    22:00 +2°C° 0 mm 1 mps 683 mmHg 88%
    23:00 +2°C° 0 mm 1 mps 683 mmHg 87%

    Tomorrow, 19 January, Saturday

    Time Temperature Precipitation Wind Pressure Humidity
    00:00 +2°C° 0 mm 1 mps 683 mmHg 86%
    01:00 +2°C° 0 mm 1 mps 683 mmHg 85%
    02:00 +2°C° 0 mm 1 mps 683 mmHg 84%
    03:00 +2°C° 0 mm 1 mps 683 mmHg 83%
    04:00 +1°C° 0 mm 2 mps 682 mmHg 82%
    05:00 +2°C° 0.1 mm 2 mps 683 mmHg 81%
    06:00 +2°C° 0.1 mm 2 mps 683 mmHg 80%
    07:00 +2°C° 0.1 mm 2 mps 683 mmHg 79%
    08:00 +4°C° 0.3 mm 2 mps 683 mmHg 80%
    09:00 +6°C° 0.3 mm 1 mps 684 mmHg 80%
    10:00 +8°C° 0.3 mm 1 mps 684 mmHg 80%
    11:00 +7°C° 0.4 mm 2 mps 684 mmHg 79%
    12:00 +8°C° 0.4 mm 2 mps 684 mmHg 78%
    13:00 +8°C° 0.4 mm 3 mps 684 mmHg 77%
    14:00 +8°C° 0.3 mm 2 mps 683 mmHg 80%
    15:00 +7°C° 0.3 mm 2 mps 683 mmHg 83%
    16:00 +7°C° 0.3 mm 1 mps 682 mmHg 86%
    17:00 +6°C° 0.1 mm 2 mps 682 mmHg 88%
    18:00 +5°C° 0.1 mm 2 mps 682 mmHg 90%
    19:00 +4°C° 0.1 mm 2 mps 682 mmHg 92%
    20:00 +3°C° 0.1 mm 2 mps 682 mmHg 92%
    21:00 +3°C° 0.1 mm 2 mps 682 mmHg 92%
    22:00 +3°C° 0.1 mm 2 mps 682 mmHg 92%
    23:00 +3°C° 0.1 mm 2 mps 682 mmHg 92%

    Day after tomorrow, 20 January, Sunday

    Time Temperature Precipitation Wind Pressure Humidity
    00:00 +3°C° 0.1 mm 2 mps 682 mmHg 92%
    01:00 +3°C° 0.1 mm 2 mps 682 mmHg 92%
    02:00 +3°C° 0.1 mm 2 mps 682 mmHg 92%
    03:00 +3°C° 0.1 mm 2 mps 681 mmHg 92%
    04:00 +3°C° 0.1 mm 2 mps 681 mmHg 92%
    05:00 +3°C° 0.1 mm 2 mps 681 mmHg 92%
    06:00 +3°C° 0.1 mm 2 mps 681 mmHg 92%
    07:00 +2°C° 0.1 mm 2 mps 681 mmHg 92%
    08:00 +4°C° 0.1 mm 2 mps 682 mmHg 87%
    09:00 +6°C° 0.1 mm 2 mps 682 mmHg 81%
    10:00 +8°C° 0.1 mm 2 mps 683 mmHg 75%
    11:00 +8°C° 0.2 mm 2 mps 683 mmHg 72%
    12:00 +9°C° 0.2 mm 2 mps 682 mmHg 69%
    13:00 +9°C° 0.2 mm 2 mps 682 mmHg 65%
    14:00 +9°C° 0.2 mm 2 mps 682 mmHg 70%
    15:00 +8°C° 0.2 mm 2 mps 681 mmHg 75%
    16:00 +8°C° 0.2 mm 1 mps 681 mmHg 80%
    17:00 +7°C° 0.1 mm 1 mps 681 mmHg 83%
    18:00 +6°C° 0.1 mm 1 mps 681 mmHg 86%
    19:00 +5°C° 0.1 mm 1 mps 681 mmHg 89%
    20:00 +4°C° 0 mm 1 mps 681 mmHg 88%
    21:00 +4°C° 0 mm 1 mps 681 mmHg 88%
    22:00 +4°C° 0 mm 1 mps 681 mmHg 87%
    23:00 +4°C° 0 mm 1 mps 681 mmHg 85%

    21 January, Monday

    Time Temperature Precipitation Wind Pressure Humidity
    00:00 +3°C° 0 mm 1 mps 681 mmHg 83%
    01:00 +3°C° 0 mm 1 mps 681 mmHg 81%
    02:00 +3°C° 0 mm 1 mps 681 mmHg 80%
    03:00 +3°C° 0 mm 1 mps 681 mmHg 79%
    04:00 +3°C° 0 mm 1 mps 680 mmHg 78%
    05:00 +2°C° 0 mm 1 mps 681 mmHg 77%
    06:00 +2°C° 0 mm 1 mps 681 mmHg 77%
    07:00 +2°C° 0 mm 1 mps 681 mmHg 77%
    08:00 +5°C° 0 mm 1 mps 682 mmHg 71%
    09:00 +7°C° 0 mm 1 mps 682 mmHg 66%
    10:00 +8°C° 0 mm 0 mps 683 mmHg 61%
    11:00 +10°C° 0 mm 1 mps 683 mmHg 59%
    12:00 +10°C° 0 mm 1 mps 683 mmHg 57%
    13:00 +11°C° 0 mm 1 mps 683 mmHg 55%
    14:00 +10°C° 0 mm 1 mps 683 mmHg 61%
    15:00 +9°C° 0 mm 1 mps 682 mmHg 67%
    16:00 +8°C° 0 mm 1 mps 682 mmHg 73%
    17:00 +7°C° 0 mm 1 mps 682 mmHg 78%
    18:00 +6°C° 0 mm 1 mps 682 mmHg 83%
    19:00 +5°C° 0 mm 1 mps 682 mmHg 87%
    20:00 +5°C° 0 mm 1 mps 682 mmHg 88%
    21:00 +4°C° 0 mm 1 mps 682 mmHg 88%
    22:00 +4°C° 0 mm 1 mps 682 mmHg 89%
    23:00 +4°C° 0 mm 1 mps 682 mmHg 88%

    22 January, Tuesday

    Time Temperature Precipitation Wind Pressure Humidity
    00:00 +3°C° 0 mm 2 mps 682 mmHg 87%
    01:00 +3°C° 0 mm 2 mps 681 mmHg 87%
    02:00 +3°C° 0.1 mm 2 mps 681 mmHg 86%
    03:00 +3°C° 0.1 mm 2 mps 681 mmHg 84%
    04:00 +3°C° 0.1 mm 2 mps 681 mmHg 83%
    05:00 +3°C° 0.1 mm 2 mps 681 mmHg 83%
    06:00 +3°C° 0.1 mm 2 mps 681 mmHg 84%
    07:00 +3°C° 0.1 mm 2 mps 680 mmHg 84%
    08:00 +5°C° 0.1 mm 2 mps 681 mmHg 81%
    09:00 +5°C° 0.1 mm 3 mps 681 mmHg 77%
    10:00 +7°C° 0.1 mm 3 mps 681 mmHg 73%
    11:00 +8°C° 0.2 mm 3 mps 681 mmHg 75%
    12:00 +7°C° 0.2 mm 4 mps 680 mmHg 77%
    13:00 +7°C° 0.2 mm 4 mps 679 mmHg 78%
    14:00 +8°C° 0.3 mm 3 mps 679 mmHg 80%
    15:00 +7°C° 0.3 mm 3 mps 678 mmHg 81%
    16:00 +7°C° 0.3 mm 3 mps 678 mmHg 82%
    17:00 +6°C° 0.5 mm 2 mps 678 mmHg 86%
    18:00 +5°C° 0.5 mm 2 mps 677 mmHg 89%
    19:00 +5°C° 0.5 mm 2 mps 677 mmHg 92%
    20:00 +5°C° 1.5 mm 2 mps 677 mmHg 93%
    21:00 +5°C° 1.5 mm 2 mps 677 mmHg 94%
    22:00 +5°C° 1.5 mm 2 mps 677 mmHg 95%
    23:00 +5°C° 0.9 mm 2 mps 677 mmHg 94%

    23 January, Wednesday

    Time Temperature Precipitation Wind Pressure Humidity
    00:00 +5°C° 0.9 mm 2 mps 676 mmHg 94%
    01:00 +4°C° 0.9 mm 2 mps 676 mmHg 94%
    02:00 +3°C° 1 mm 3 mps 676 mmHg 93%
    03:00 +3°C° 1 mm 3 mps 676 mmHg 93%
    04:00 +3°C° 1 mm 3 mps 676 mmHg 93%
    05:00 +4°C° 1 mm 2 mps 676 mmHg 93%
    06:00 +4°C° 1 mm 2 mps 676 mmHg 93%
    07:00 +4°C° 1 mm 2 mps 676 mmHg 93%
    08:00 +3°C° 1.3 mm 3 mps 676 mmHg 91%
    09:00 +4°C° 1.3 mm 3 mps 676 mmHg 90%
    10:00 +4°C° 1.3 mm 3 mps 676 mmHg 88%
    11:00 +4°C° 0.7 mm 3 mps 676 mmHg 87%
    12:00 +4°C° 0.7 mm 3 mps 676 mmHg 86%
    13:00 +4°C° 0.7 mm 3 mps 675 mmHg 86%
    14:00 +4°C° 0.5 mm 3 mps 675 mmHg 86%
    15:00 +5°C° 0.5 mm 2 mps 675 mmHg 87%
    16:00 +6°C° 0.5 mm 1 mps 674 mmHg 88%
    17:00 +5°C° 0.1 mm 1 mps 674 mmHg 90%
    18:00 +4°C° 0.1 mm 1 mps 674 mmHg 92%
    19:00 +3°C° 0.1 mm 2 mps 674 mmHg 94%
    20:00 +3°C° 0.1 mm 2 mps 674 mmHg 94%
    21:00 +3°C° 0.1 mm 2 mps 673 mmHg 94%
    22:00 +2°C° 0.1 mm 2 mps 673 mmHg 95%
    23:00 +3°C° 0.7 mm 2 mps 673 mmHg 94%
    Show more